| time (UTC) | temp C | wind direction | speed KPH | gust KPH | rain 1hr cm | rain 24hr cm | rain mn cm | humidity % | barometer mb |
| 20260506135004 | 13 | 356 | 3.2 | 4.8 | 0.00 | 0.00 | 0.53 | 74 | 1011.3 |
| 20260506134505 | 13 | 317 | 3.2 | 9.7 | 0.00 | 0.00 | 0.53 | 73 | 1011.3 |
| 20260506134005 | 14 | 353 | 4.8 | 9.7 | 0.00 | 0.00 | 0.53 | 72 | 1011.2 |
| 20260506133505 | 15 | 277 | 6.4 | 12.9 | 0.00 | 0.00 | 0.53 | 74 | 1011.3 |
| 20260506133006 | 14 | 345 | 3.2 | 6.4 | 0.00 | 0.00 | 0.53 | 74 | 1011.0 |
| 20260506132505 | 13 | 358 | 4.8 | 9.7 | 0.00 | 0.00 | 0.53 | 75 | 1011.3 |
| 20260506132005 | 13 | 317 | 3.2 | 11.3 | 0.00 | 0.00 | 0.53 | 75 | 1011.1 |
| 20260506131504 | 13 | 328 | 1.6 | 9.7 | 0.00 | 0.00 | 0.53 | 75 | 1011.4 |
| 20260506131004 | 13 | 302 | 3.2 | 11.3 | 0.00 | 0.00 | 0.53 | 75 | 1011.2 |
| 20260506130505 | 13 | 290 | 6.4 | 6.4 | 0.00 | 0.00 | 0.00 | ||
| 20260506130005 | 13 | 343 | 3.2 | 4.8 | 0.00 | 0.00 | 0.53 | 77 | 1011.4 |
| 20260506125505 | 13 | 11 | 6.4 | 16.1 | 0.00 | 0.00 | 0.53 | 76 | 1011.1 |
| 20260506125006 | 14 | 347 | 6.4 | 9.7 | 0.00 | 0.00 | 0.53 | 75 | 1011.1 |
| 20260506124506 | 14 | 0 | 6.4 | 6.4 | 0.00 | 0.00 | 0.53 | 75 | 1011.0 |
| 20260506124005 | 13 | 12 | 4.8 | 11.3 | 0.00 | 0.00 | 0.53 | 76 | 1011.0 |
| 20260506123505 | 13 | 307 | 3.2 | 12.9 | 0.00 | 0.00 | 0.53 | 78 | 1010.9 |
| 20260506123006 | 13 | 333 | 8.0 | 17.7 | 0.00 | 0.00 | 0.53 | 77 | 1011.1 |
| 20260506122505 | 13 | 301 | 8.0 | 14.5 | 0.00 | 0.00 | 0.53 | 76 | 1011.0 |
| 20260506122005 | 13 | 344 | 4.8 | 14.5 | 0.00 | 0.00 | 0.53 | 76 | 1011.0 |
| 20260506121505 | 13 | 327 | 3.2 | 14.5 | 0.00 | 0.00 | 0.53 | 79 | 1011.0 |
| 20260506121004 | 13 | 350 | 9.7 | 24.1 | 0.00 | 0.00 | 0.53 | 79 | 1010.7 |
| 20260506120505 | 13 | 339 | 9.7 | 14.5 | 0.00 | 0.00 | 0.53 | 80 | 1010.9 |
| 20260506120005 | 13 | 293 | 4.8 | 14.5 | 0.00 | 0.00 | 0.53 | 80 | 1010.7 |
| 20260506115504 | 13 | 341 | 11.3 | 16.1 | 0.00 | 0.00 | 0.53 | 77 | 1011.0 |
| 20260506115005 | 13 | 7 | 8.0 | 14.5 | 0.00 | 0.00 | 0.53 | 77 | 1011.0 |
| 20260506114505 | 13 | 336 | 12.9 | 22.5 | 0.00 | 0.00 | 0.53 | 77 | 1010.8 |
| 20260506114005 | 13 | 291 | 6.4 | 11.3 | 0.00 | 0.00 | 0.53 | 80 | 1010.8 |
| 20260506113505 | 13 | 331 | 4.8 | 12.9 | 0.00 | 0.00 | 0.53 | 78 | 1011.0 |
| 20260506113005 | 13 | 347 | 4.8 | 14.5 | 0.00 | 0.00 | 0.53 | 79 | 1010.9 |
| 20260506112504 | 12 | 321 | 6.4 | 14.5 | 0.00 | 0.00 | 0.53 | 82 | 1011.0 |
| 20260506112004 | 12 | 335 | 6.4 | 14.5 | 0.00 | 0.00 | 0.53 | 83 | 1010.8 |
| 20260506111504 | 12 | 313 | 9.7 | 14.5 | 0.00 | 0.00 | 0.53 | 83 | 1010.8 |
| 20260506111004 | 12 | 324 | 6.4 | 9.7 | 0.00 | 0.00 | 0.53 | 85 | 1010.7 |
| 20260506110505 | 12 | 3 | 3.2 | 9.7 | 0.00 | 0.00 | 0.53 | 85 | 1010.9 |
| 20260506110005 | 12 | 351 | 8.0 | 9.7 | 0.00 | 0.00 | 0.53 | 84 | 1010.8 |
| 20260506105505 | 12 | 18 | 4.8 | 6.4 | 0.00 | 0.00 | 0.53 | 85 | 1010.6 |
| 20260506105005 | 12 | 347 | 6.4 | 16.1 | 0.00 | 0.00 | 0.53 | 86 | 1010.7 |
| 20260506104504 | 12 | 349 | 4.8 | 11.3 | 0.00 | 0.00 | 0.53 | 84 | 1010.6 |
| 20260506104005 | 12 | 294 | 4.8 | 9.7 | 0.00 | 0.00 | 0.53 | 86 | 1010.6 |
| 20260506103503 | 12 | 311 | 8.0 | 14.5 | 0.00 | 0.00 | 0.53 | 86 | 1010.6 |
| 20260506103004 | 12 | 294 | 4.8 | 11.3 | 0.00 | 0.00 | 0.53 | 85 | 1010.5 |
| 20260506102505 | 12 | 293 | 3.2 | 9.7 | 0.00 | 0.00 | 0.53 | 86 | 1010.6 |
| 20260506102006 | 11 | 18 | 8.0 | 12.9 | 0.00 | 0.00 | 0.53 | 87 | 1010.7 |
| 20260506101505 | 11 | 322 | 6.4 | 11.3 | 0.00 | 0.00 | 0.53 | 86 | 1010.4 |
| 20260506101006 | 11 | 63 | 4.8 | 11.3 | 0.00 | 0.00 | 0.53 | 87 | 1010.6 |
| 20260506100515 | 11 | 334 | 3.2 | 12.9 | 0.00 | 0.00 | 0.53 | 87 | 1010.5 |
| 20260506100005 | 11 | 310 | 11.3 | 16.1 | 0.00 | 0.00 | 0.53 | 88 | 1010.5 |
| 20260506095505 | 11 | 353 | 4.8 | 12.9 | 0.00 | 0.00 | 0.53 | 88 | 1010.5 |
| 20260506095003 | 11 | 314 | 9.7 | 12.9 | 0.00 | 0.00 | 0.53 | 89 | 1010.5 |
| 20260506094505 | 11 | 343 | 11.3 | 12.9 | 0.00 | 0.00 | 0.53 | 89 | 1010.5 |
| 20260506094005 | 11 | 19 | 6.4 | 12.9 | 0.00 | 0.00 | 0.53 | 88 | 1010.3 |
| 20260506093505 | 11 | 8 | 9.7 | 17.7 | 0.00 | 0.00 | 0.53 | 89 | 1010.6 |
| 20260506093005 | 11 | 17 | 6.4 | 12.9 | 0.00 | 0.00 | 0.53 | 90 | 1010.4 |
| 20260506092505 | 11 | 318 | 9.7 | 12.9 | 0.00 | 0.00 | 0.53 | 90 | 1010.4 |
| 20260506092005 | 10 | 323 | 9.7 | 16.1 | 0.00 | 0.00 | 0.53 | 91 | 1010.6 |
| 20260506091505 | 11 | 292 | 8.0 | 11.3 | 0.00 | 0.00 | 0.53 | 92 | 1010.3 |
| 20260506091005 | 11 | 307 | 8.0 | 12.9 | 0.00 | 0.00 | 0.53 | 92 | 1010.1 |
| 20260506090505 | 10 | 345 | 3.2 | 4.8 | 0.00 | 0.00 | 0.53 | 92 | 1010.2 |
| 20260506090005 | 10 | 300 | 11.3 | 14.5 | 0.00 | 0.00 | 0.53 | 92 | 1010.3 |
| 20260506085503 | 10 | 348 | 6.4 | 12.9 | 0.00 | 0.00 | 0.53 | 92 | 1010.3 |
| 20260506085005 | 10 | 344 | 9.7 | 12.9 | 0.00 | 0.00 | 0.53 | 93 | 1010.2 |
| 20260506084504 | 10 | 297 | 9.7 | 17.7 | 0.00 | 0.00 | 0.53 | 94 | 1010.2 |
| 20260506084005 | 9 | 333 | 8.0 | 16.1 | 0.00 | 0.00 | 0.53 | 94 | 1010.1 |
| 20260506083505 | 9 | 280 | 6.4 | 20.9 | 0.00 | 0.00 | 0.53 | 95 | 1010.2 |
| 20260506083005 | 9 | 350 | 14.5 | 20.9 | 0.00 | 0.00 | 0.53 | 96 | 1010.2 |
| 20260506082505 | 9 | 344 | 9.7 | 14.5 | 0.00 | 0.00 | 0.53 | 97 | 1010.1 |
| 20260506082005 | 9 | 347 | 9.7 | 16.1 | 0.00 | 0.00 | 0.53 | 97 | 1010.2 |
| 20260506081505 | 9 | 349 | 3.2 | 14.5 | 0.00 | 0.00 | 0.53 | 98 | 1010.1 |
| 20260506081006 | 9 | 349 | 3.2 | 4.8 | 0.03 | 0.00 | 0.53 | 98 | 1010.0 |
| 20260506080504 | 9 | 335 | 4.8 | 12.9 | 0.03 | 0.00 | 0.53 | 98 | 1009.9 |
| 20260506073504 | 9 | 333 | 4.8 | 6.4 | 0.03 | 0.00 | 0.53 | 98 | 1009.9 |
| 20260506073005 | 8 | 356 | 6.4 | 11.3 | 0.03 | 0.00 | 0.53 | 98 | 1010.0 |
| 20260506072505 | 8 | 2 | 4.8 | 16.1 | 0.03 | 0.00 | 0.53 | 98 | 1009.7 |
| 20260506072005 | 8 | 356 | 14.5 | 16.1 | 0.03 | 0.00 | 0.53 | 99 | 1009.6 |
| 20260506071505 | 8 | 350 | 9.7 | 11.3 | 0.03 | 0.00 | 0.53 | 99 | 1009.5 |
| 20260506071005 | 8 | 355 | 3.2 | 9.7 | 0.00 | 0.00 | 0.51 | 99 | 1009.6 |
| 20260506070505 | 8 | 11 | 4.8 | 9.7 | 0.00 | 0.00 | 0.51 | 99 | 1009.5 |
| 20260506062505 | 9 | 354 | 4.8 | 11.3 | 0.03 | 0.00 | 0.51 | 99 | 1008.9 |
| 20260506062005 | 9 | 339 | 3.2 | 9.7 | 0.03 | 0.00 | 0.51 | 99 | 1009.0 |
| 20260506061504 | 8 | 14 | 8.0 | 11.3 | 0.03 | 0.00 | 0.51 | 99 | 1009.0 |
| 20260506061005 | 9 | 349 | 1.6 | 9.7 | 0.05 | 0.00 | 0.51 | 99 | 1008.9 |
| 20260506060505 | 9 | 341 | 9.7 | 12.9 | 0.05 | 0.00 | 0.51 | 99 | 1008.7 |
| 20260506051004 | 9 | 329 | 8.0 | 14.5 | 0.08 | 0.00 | 0.46 | 99 | 1008.1 |
| 20260506050506 | 10 | 342 | 6.4 | 11.3 | 0.08 | 0.00 | 0.46 | 99 | 1008.1 |
| 20260506045005 | 10 | 307 | 9.7 | 11.3 | 0.08 | 0.00 | 0.43 | 99 | 1008.2 |
| 20260506044505 | 10 | 297 | 8.0 | 12.9 | 0.08 | 0.00 | 0.43 | 99 | 1007.9 |
| 20260506044004 | 10 | 331 | 8.0 | 11.3 | 0.08 | 0.00 | 0.43 | 99 | 1008.0 |
| 20260506043505 | 10 | 341 | 3.2 | 11.3 | 0.05 | 0.00 | 0.41 | 99 | 1008.0 |
| 20260506043005 | 10 | 335 | 4.8 | 11.3 | 0.05 | 0.00 | 0.41 | 99 | 1007.9 |
| 20260506042505 | 10 | 339 | 6.4 | 11.3 | 0.08 | 0.00 | 0.41 | 99 | 1007.8 |
| 20260506042004 | 10 | 2 | 4.8 | 14.5 | 0.08 | 0.00 | 0.41 | 99 | 1007.7 |
| 20260506041504 | 10 | 328 | 8.0 | 14.5 | 0.05 | 0.00 | 0.38 | 99 | 1007.8 |
| 20260506041006 | 10 | 297 | 4.8 | 14.5 | 0.05 | 0.00 | 0.38 | 99 | 1007.8 |
| 20260506040505 | 10 | 331 | 9.7 | 12.9 | 0.05 | 0.00 | 0.38 | 99 | 1007.7 |
| 20260506040005 | 10 | 332 | 6.4 | 11.3 | 0.08 | 0.00 | 0.38 | 99 | 1007.9 |
| 20260506035504 | 10 | 355 | 9.7 | 12.9 | 0.08 | 0.00 | 0.38 | 99 | 1007.9 |
| 20260506035005 | 10 | 1 | 6.4 | 11.3 | 0.05 | 0.00 | 0.36 | 99 | 1008.0 |
| 20260506034505 | 10 | 353 | 4.8 | 9.7 | 0.05 | 0.00 | 0.36 | 99 | 1007.9 |
| 20260506034005 | 10 | 332 | 3.2 | 6.4 | 0.05 | 0.00 | 0.36 | 99 | 1007.9 |
| 20260506033505 | 10 | 331 | 6.4 | 14.5 | 0.05 | 0.00 | 0.36 | 99 | 1007.9 |
| 20260506033005 | 10 | 346 | 6.4 | 9.7 | 0.05 | 0.00 | 0.36 | 99 | 1007.9 |
| 20260506032504 | 10 | 343 | 9.7 | 12.9 | 0.03 | 0.00 | 0.33 | 99 | 1008.0 |
| 20260506032006 | 10 | 4 | 4.8 | 11.3 | 0.03 | 0.00 | 0.33 | 99 | 1008.1 |
| 20260506031505 | 10 | 333 | 6.4 | 11.3 | 0.03 | 0.00 | 0.33 | 99 | 1007.9 |
| 20260506031004 | 10 | 334 | 1.6 | 9.7 | 0.03 | 0.00 | 0.33 | 99 | 1008.0 |
| 20260506030505 | 10 | 335 | 3.2 | 6.4 | 0.05 | 0.00 | 0.33 | 99 | 1008.0 |
| 20260506030006 | 10 | 317 | 3.2 | 6.4 | 0.03 | 0.00 | 0.30 | 99 | 1008.0 |
| 20260506025505 | 10 | 329 | 4.8 | 9.7 | 0.05 | 0.00 | 0.30 | 99 | 1008.1 |
| 20260506025004 | 10 | 352 | 9.7 | 12.9 | 0.05 | 0.00 | 0.30 | 99 | 1007.9 |
| 20260506024504 | 10 | 324 | 4.8 | 11.3 | 0.08 | 0.00 | 0.30 | 99 | 1008.2 |
| 20260506024005 | 10 | 301 | 4.8 | 11.3 | 0.08 | 0.00 | 0.30 | 99 | 1008.1 |
| 20260506023505 | 10 | 343 | 9.7 | 12.9 | 0.10 | 0.00 | 0.30 | 99 | 1008.0 |
| 20260506023004 | 10 | 346 | 6.4 | 14.5 | 0.13 | 0.00 | 0.30 | 99 | 1008.1 |
| 20260506022505 | 10 | 314 | 4.8 | 12.9 | 0.13 | 0.00 | 0.30 | 99 | 1007.9 |
| 20260506022005 | 10 | 296 | 6.4 | 11.3 | 0.15 | 0.00 | 0.30 | 99 | 1008.1 |
| 20260506021506 | 10 | 315 | 6.4 | 9.7 | 0.15 | 0.00 | 0.30 | 99 | 1008.0 |
| 20260506021005 | 10 | 304 | 4.8 | 9.7 | 0.15 | 0.00 | 0.30 | 99 | 1008.2 |
| 20260506020505 | 10 | 338 | 4.8 | 11.3 | 0.13 | 0.00 | 0.28 | 99 | 1008.0 |
| 20260506020005 | 10 | 336 | 4.8 | 6.4 | 0.13 | 0.00 | 0.28 | 99 | 1008.2 |
| 20260506015505 | 10 | 339 | 3.2 | 4.8 | 0.13 | 0.00 | 0.25 | 99 | 1008.1 |
| 20260506015004 | 10 | 273 | 3.2 | 6.4 | 0.13 | 0.00 | 0.25 | 99 | 1008.1 |
| 20260506014504 | 10 | 333 | 3.2 | 6.4 | 0.10 | 0.00 | 0.23 | 99 | 1008.1 |
| 20260506014005 | 10 | 334 | 1.6 | 3.2 | 0.10 | 0.00 | 0.23 | 99 | 1008.2 |
| 20260506013505 | 10 | 324 | 1.6 | 3.2 | 0.08 | 0.00 | 0.20 | 99 | 1008.1 |
| 20260506013004 | 10 | 325 | 1.6 | 3.2 | 0.05 | 0.00 | 0.18 | 99 | 1008.0 |
| 20260506012505 | 10 | 352 | 3.2 | 4.8 | 0.05 | 0.00 | 0.18 | 99 | 1008.1 |
| 20260506012005 | 10 | 324 | 3.2 | 4.8 | 0.03 | 0.00 | 0.15 | 99 | 1008.1 |
| 20260506011505 | 11 | 337 | 8.0 | 9.7 | 0.05 | 0.00 | 0.15 | 99 | 1008.1 |
| 20260506011005 | 11 | 3 | 3.2 | 4.8 | 0.08 | 0.00 | 0.15 | 99 | 1008.1 |
| 20260506010504 | 11 | 327 | 3.2 | 4.8 | 0.08 | 0.00 | 0.15 | 99 | 1008.1 |
| 20260506010006 | 11 | 294 | 1.6 | 3.2 | 0.10 | 0.00 | 0.15 | 99 | 1008.0 |
| 20260506005504 | 11 | 351 | 1.6 | 4.8 | 0.10 | 0.00 | 0.13 | 99 | 1008.2 |
| 20260506005004 | 11 | 350 | 1.6 | 3.2 | 0.10 | 0.00 | 0.13 | 99 | 1008.1 |
| 20260506004505 | 11 | 9 | 3.2 | 6.4 | 0.10 | 0.00 | 0.13 | 99 | 1008.2 |
| 20260506004004 | 11 | 351 | 4.8 | 11.3 | 0.10 | 0.00 | 0.13 | 99 | 1008.1 |
| 20260506003505 | 11 | 329 | 3.2 | 11.3 | 0.10 | 0.00 | 0.13 | 99 | 1008.1 |
| 20260506003004 | 11 | 300 | 8.0 | 9.7 | 0.10 | 0.00 | 0.13 | 99 | 1008.0 |
| 20260506002504 | 11 | 332 | 1.6 | 3.2 | 0.10 | 0.00 | 0.13 | 99 | 1007.9 |
| 20260506002004 | 11 | 347 | 1.6 | 3.2 | 0.08 | 0.00 | 0.10 | 99 | 1008.3 |
| 20260506001504 | 11 | 338 | 3.2 | 4.8 | 0.08 | 0.00 | 0.10 | 99 | 1008.2 |
| 20260506001005 | 11 | 338 | 3.2 | 3.2 | 0.05 | 0.00 | 0.08 | 99 | 1008.2 |
| 20260506000505 | 11 | 313 | 1.6 | 3.2 | 0.05 | 0.00 | 0.08 | 99 | 1008.3 |
| 20260506000005 | 11 | 325 | 3.2 | 3.2 | 0.00 | 0.00 | 0.03 | 99 | 1008.2 |
| 20260505235505 | 11 | 337 | 1.6 | 3.2 | 0.00 | 0.00 | 0.03 | 99 | 1008.1 |
| 20260505235005 | 11 | 315 | 1.6 | 6.4 | 0.00 | 0.00 | 0.03 | 99 | 1008.2 |
| 20260505234504 | 11 | 310 | 3.2 | 4.8 | 0.00 | 0.00 | 0.03 | 99 | 1008.2 |
| 20260505234005 | 11 | 339 | 3.2 | 3.2 | 0.00 | 0.00 | 0.03 | 99 | 1008.3 |
| 20260505233505 | 11 | 344 | 3.2 | 6.4 | 0.00 | 0.00 | 0.03 | 99 | 1008.2 |
| 20260505233004 | 11 | 345 | 1.6 | 4.8 | 0.03 | 0.00 | 0.03 | 99 | 1008.3 |
| 20260505232504 | 11 | 339 | 3.2 | 4.8 | 0.03 | 0.00 | 0.03 | 99 | 1008.3 |
| 20260505232005 | 11 | 329 | 1.6 | 3.2 | 0.03 | 0.00 | 0.03 | 99 | 1008.3 |
| 20260505231504 | 11 | 338 | 1.6 | 6.4 | 0.03 | 0.00 | 0.03 | 99 | 1008.2 |
| 20260505231005 | 11 | 4 | 3.2 | 6.4 | 0.03 | 0.00 | 0.03 | 99 | 1008.3 |
| 20260505230505 | 11 | 331 | 1.6 | 3.2 | 0.03 | 0.00 | 0.03 | 99 | 1008.4 |
| 20260505230005 | 11 | 320 | 1.6 | 4.8 | 1.27 | 0.00 | 0.03 | 99 | 1008.4 |
| 20260505225505 | 11 | 322 | 4.8 | 6.4 | 1.27 | 0.00 | 0.03 | 99 | 1008.3 |
| 20260505225005 | 11 | 306 | 1.6 | 1.6 | 1.27 | 0.00 | 0.03 | 99 | 1008.3 |
| 20260505224505 | 11 | 326 | 1.6 | 3.2 | 1.27 | 0.00 | 0.03 | 99 | 1008.5 |
| 20260505224005 | 11 | 326 | 1.6 | 4.8 | 1.27 | 0.00 | 0.03 | 99 | 1008.3 |
| 20260505223505 | 11 | 299 | 3.2 | 4.8 | 1.27 | 0.00 | 0.03 | 99 | 1008.4 |
| 20260505223005 | 11 | 312 | 1.6 | 3.2 | 1.27 | 0.00 | 0.00 | 99 | 1008.4 |
| 20260505222504 | 11 | 297 | 1.6 | 6.4 | 1.27 | 0.00 | 0.00 | 99 | 1008.3 |
| 20260505222005 | 11 | 300 | 1.6 | 4.8 | 1.27 | 0.00 | 0.00 | 99 | 1008.3 |
| 20260505221504 | 11 | 324 | 3.2 | 4.8 | 1.27 | 0.00 | 0.00 | 99 | 1008.3 |
| 20260505221005 | 11 | 303 | 4.8 | 4.8 | 1.27 | 0.00 | 0.00 | 99 | 1008.3 |
| 20260505220505 | 11 | 306 | 1.6 | 3.2 | 1.27 | 0.00 | 0.00 | 99 | 1008.4 |
| 20260505220005 | 11 | 352 | 3.2 | 4.8 | 0.00 | 0.00 | 1.27 | 99 | 1008.4 |
| 20260505215505 | 11 | 298 | 1.6 | 9.7 | 0.00 | 0.00 | 1.27 | 99 | 1008.2 |
| 20260505215005 | 11 | 302 | 3.2 | 4.8 | 0.03 | 0.00 | 1.27 | 99 | 1008.2 |
| 20260505214504 | 11 | 302 | 3.2 | 6.4 | 0.03 | 0.00 | 1.27 | 99 | 1008.1 |
| 20260505214005 | 11 | 315 | 3.2 | 9.7 | 0.03 | 0.00 | 1.27 | 99 | 1008.3 |
| 20260505213505 | 11 | 0 | 4.8 | 9.7 | 0.03 | 0.00 | 1.27 | 99 | 1008.2 |
| 20260505213005 | 11 | 333 | 1.6 | 4.8 | 0.03 | 0.00 | 1.27 | 99 | 1008.3 |
| 20260505212502 | 11 | 302 | 1.6 | 3.2 | 0.03 | 0.00 | 1.27 | 99 | 1008.1 |
| 20260505212003 | 11 | 333 | 1.6 | 3.2 | 0.03 | 0.00 | 1.27 | 99 | 1008.3 |
| 20260505211504 | 11 | 347 | 4.8 | 9.7 | 0.05 | 0.00 | 1.27 | 99 | 1008.4 |
| 20260505211005 | 11 | 312 | 3.2 | 6.4 | 0.05 | 0.00 | 1.27 | 99 | 1008.5 |
| 20260505210505 | 11 | 341 | 1.6 | 6.4 | 0.05 | 0.00 | 1.27 | 99 | 1008.3 |
| 20260505210006 | 11 | 328 | 6.4 | 9.7 | 0.05 | 0.00 | 1.27 | 99 | 1008.4 |
| 20260505205505 | 11 | 300 | 3.2 | 4.8 | 0.05 | 0.00 | 1.27 | 99 | 1008.4 |
| 20260505205005 | 11 | 328 | 6.4 | 9.7 | 0.03 | 0.00 | 1.24 | 99 | 1008.4 |
| 20260505204505 | 11 | 330 | 0.0 | 4.8 | 0.05 | 0.00 | 1.24 | 99 | 1008.4 |
| 20260505204005 | 11 | 320 | 3.2 | 4.8 | 0.05 | 0.00 | 1.24 | 99 | 1008.4 |
| 20260505203505 | 11 | 320 | 3.2 | 4.8 | 0.08 | 0.00 | 1.24 | 99 | 1008.4 |
| 20260505203006 | 11 | 350 | 4.8 | 6.4 | 0.08 | 0.00 | 1.24 | 99 | 1008.4 |
| 20260505202004 | 11 | 332 | 4.8 | 11.3 | 0.10 | 0.00 | 1.24 | 99 | 1008.2 |
| 20260505201505 | 11 | 328 | 4.8 | 4.8 | 0.08 | 0.00 | 1.22 | 99 | 1008.4 |
| 20260505201004 | 11 | 15 | 3.2 | 6.4 | 0.08 | 0.00 | 1.22 | 99 | 1008.1 |
| 20260505200504 | 11 | 348 | 4.8 | 9.7 | 0.10 | 0.00 | 1.22 | 99 | 1008.2 |
| 20260505200005 | 12 | 347 | 3.2 | 6.4 | 0.10 | 0.00 | 1.22 | 99 | 1008.3 |
| 20260505195505 | 12 | 323 | 3.2 | 4.8 | 0.13 | 0.00 | 1.22 | 99 | 1008.0 |
| 20260505195005 | 12 | 299 | 4.8 | 4.8 | 0.13 | 0.00 | 1.22 | 99 | 1007.9 |
| 20260505194502 | 12 | 357 | 4.8 | 4.8 | 0.13 | 0.00 | 1.19 | 99 | 1007.9 |
| 20260505194005 | 12 | 2 | 3.2 | 6.4 | 0.13 | 0.00 | 1.19 | 99 | 1007.9 |
| 20260505193504 | 12 | 351 | 4.8 | 6.4 | 0.10 | 0.00 | 1.17 | 99 | 1008.1 |
| 20260505193004 | 12 | 3 | 3.2 | 6.4 | 0.13 | 0.00 | 1.17 | 99 | 1007.8 |
| 20260505192505 | 12 | 356 | 9.7 | 12.9 | 0.13 | 0.00 | 1.14 | 99 | 1007.8 |
| 20260505192005 | 12 | 357 | 6.4 | 11.3 | 0.15 | 0.00 | 1.14 | 99 | 1007.7 |
| 20260505191504 | 12 | 6 | 6.4 | 11.3 | 0.20 | 0.00 | 1.14 | 98 | 1007.6 |
| 20260505191004 | 12 | 3 | 3.2 | 11.3 | 0.20 | 0.00 | 1.14 | 98 | 1007.7 |
| 20260505190505 | 12 | 6 | 6.4 | 11.3 | 0.20 | 0.00 | 1.12 | 98 | 1007.7 |
| 20260505190005 | 12 | 38 | 4.8 | 4.8 | 0.23 | 0.00 | 1.12 | 98 | 1007.5 |
| 20260505185505 | 12 | 354 | 4.8 | 6.4 | 0.23 | 0.00 | 1.09 | 98 | 1007.8 |
| 20260505185004 | 12 | 13 | 8.0 | 11.3 | 0.23 | 0.00 | 1.09 | 98 | 1007.7 |
| 20260505184503 | 12 | 356 | 6.4 | 9.7 | 0.20 | 0.00 | 1.07 | 98 | 1007.7 |
| 20260505184004 | 12 | 8 | 14.5 | 17.7 | 0.20 | 0.00 | 1.07 | 98 | 1007.4 |
| 20260505183504 | 12 | 354 | 11.3 | 20.9 | 0.23 | 0.00 | 1.07 | 98 | 1007.7 |
| 20260505183005 | 12 | 354 | 4.8 | 14.5 | 0.20 | 0.00 | 1.04 | 98 | 1007.5 |
| 20260505182504 | 12 | 359 | 9.7 | 17.7 | 0.18 | 0.00 | 1.02 | 98 | 1007.3 |
| 20260505182004 | 12 | 3 | 6.4 | 12.9 | 0.13 | 0.00 | 0.97 | 98 | 1007.5 |
| 20260505181504 | 12 | 13 | 6.4 | 12.9 | 0.10 | 0.00 | 0.94 | 98 | 1007.5 |
| 20260505181005 | 12 | 309 | 9.7 | 16.1 | 0.10 | 0.00 | 0.94 | 98 | 1007.4 |
| 20260505180504 | 12 | 352 | 6.4 | 11.3 | 0.08 | 0.00 | 0.91 | 98 | 1007.4 |
| 20260505180004 | 12 | 357 | 6.4 | 9.7 | 0.08 | 0.00 | 0.89 | 98 | 1007.6 |
| 20260505175505 | 12 | 349 | 6.4 | 12.9 | 0.08 | 0.00 | 0.86 | 98 | 1007.6 |
| 20260505175005 | 12 | 352 | 9.7 | 11.3 | 0.13 | 0.00 | 0.86 | 98 | 1007.8 |
| 20260505174504 | 12 | 15 | 9.7 | 16.1 | 0.15 | 0.00 | 0.86 | 98 | 1007.5 |
| 20260505174003 | 12 | 3 | 6.4 | 9.7 | 0.18 | 0.00 | 0.86 | 98 | 1007.5 |
| 20260505173504 | 12 | 10 | 6.4 | 11.3 | 0.23 | 0.00 | 0.84 | 98 | 1007.7 |
| 20260505173005 | 12 | 349 | 9.7 | 14.5 | 0.25 | 0.00 | 0.84 | 98 | 1007.4 |
| 20260505172505 | 12 | 7 | 9.7 | 12.9 | 0.28 | 0.00 | 0.84 | 98 | 1007.5 |
| 20260505172004 | 12 | 19 | 9.7 | 11.3 | 0.28 | 0.00 | 0.84 | 98 | 1007.5 |
| 20260505171505 | 12 | 352 | 4.8 | 11.3 | 0.30 | 0.00 | 0.84 | 98 | 1007.7 |
| 20260505171004 | 12 | 357 | 12.9 | 17.7 | 0.30 | 0.00 | 0.84 | 98 | 1007.5 |
| 20260505170504 | 12 | 357 | 3.2 | 9.7 | 0.30 | 0.00 | 0.84 | 98 | 1007.6 |
| 20260505170005 | 12 | 358 | 3.2 | 12.9 | 0.28 | 0.00 | 0.81 | 98 | 1007.6 |
| 20260505165504 | 12 | 354 | 8.0 | 12.9 | 0.23 | 0.00 | 0.76 | 98 | 1007.6 |
| 20260505165005 | 12 | 344 | 1.6 | 11.3 | 0.20 | 0.00 | 0.74 | 98 | 1007.5 |
| 20260505164504 | 12 | 345 | 8.0 | 12.9 | 0.18 | 0.00 | 0.71 | 97 | 1007.6 |
| 20260505164005 | 12 | 323 | 3.2 | 6.4 | 0.15 | 0.00 | 0.66 | 97 | 1007.6 |
| 20260505163505 | 12 | 298 | 4.8 | 9.7 | 0.10 | 0.00 | 0.61 | 97 | 1007.7 |
| 20260505163005 | 13 | 346 | 6.4 | 9.7 | 0.05 | 0.00 | 0.56 | 97 | 1007.7 |
| 20260505162504 | 13 | 4 | 3.2 | 4.8 | 0.08 | 0.00 | 0.56 | 97 | 1007.7 |
| 20260505162005 | 13 | 342 | 3.2 | 9.7 | 0.08 | 0.00 | 0.56 | 97 | 1007.7 |
| 20260505161505 | 13 | 359 | 9.7 | 11.3 | 0.08 | 0.00 | 0.53 | 97 | 1007.6 |
| 20260505161005 | 12 | 358 | 6.4 | 9.7 | 0.08 | 0.00 | 0.53 | 97 | 1007.7 |
| 20260505160503 | 12 | 336 | 1.6 | 4.8 | 0.08 | 0.00 | 0.53 | 97 | 1007.7 |
| 20260505153006 | 13 | 353 | 9.7 | 11.3 | 0.05 | 0.00 | 0.51 | 97 | 1007.7 |
| 20260505152505 | 13 | 356 | 4.8 | 4.8 | 0.03 | 0.00 | 0.48 | 97 | 1007.6 |
| 20260505152006 | 13 | 353 | 6.4 | 12.9 | 0.03 | 0.00 | 0.48 | 96 | 1007.7 |
| 20260505151504 | 13 | 5 | 4.8 | 9.7 | 0.03 | 0.00 | 0.46 | 97 | 1007.5 |
| 20260505151004 | 13 | 347 | 8.0 | 11.3 | 0.03 | 0.00 | 0.46 | 96 | 1007.6 |
| 20260505150505 | 14 | 37 | 6.4 | 12.9 | 0.03 | 0.00 | 0.46 | 96 | 1007.6 |
| 20260505140505 | 14 | 38 | 3.2 | 6.4 | 0.08 | 0.00 | 0.43 | 97 | 1007.8 |